EJU56LV EHAM-LDSP

Flight info

Callsign EJU56LV
Flight time 1h 49m
Altitude 37000
Route EDUPO Z739 MISGO DCT ASBON DCT TUSUK DCT UTABA DCT BEMKI DCT ELMEM DCT DIRAB DCT VESAL DCT PEVAL DCT PUL DCT LOS DCT MINTU DCT SAL
Aircraft A319/M-SDE3FGHIRWY/LB1

Departure

Time 2026-04-30 09:15
Airport Amsterdam Airport Schiphol (EHAM)

Arrival

Time 2026-04-30 11:05
Airport Split Saint Jerome Airport (LDSP)
Time Latitude Longitude Altitude Speed Heading
2026-04-30 08:41 52.31026 4.75463 -1 ft 0 kts 148°
2026-04-30 09:04 52.31035 4.75454 26 ft 3 kts 146°
2026-04-30 09:05 52.31051 4.75434 -10 ft 3 kts 128°
2026-04-30 09:05 52.31060 4.75407 -1 ft 3 kts 84°
2026-04-30 09:05 52.31059 4.75396 -1 ft 1 kts 73°
2026-04-30 09:07 52.31059 4.75397 -1 ft 0 kts 73°
2026-04-30 09:07 52.31066 4.75419 -1 ft 4 kts 59°
2026-04-30 09:07 52.31091 4.75469 -1 ft 6 kts 49°
2026-04-30 09:08 52.31131 4.75498 -1 ft 7 kts
2026-04-30 09:08 52.31179 4.75494 -1 ft 7 kts 356°
2026-04-30 09:08 52.31221 4.75490 -1 ft 5 kts 356°
2026-04-30 09:08 52.31248 4.75487 -1 ft 3 kts 356°
2026-04-30 09:09 52.31268 4.75485 -1 ft 4 kts 357°
2026-04-30 09:09 52.31298 4.75483 -1 ft 4 kts 357°
2026-04-30 09:09 52.31323 4.75481 -1 ft 3 kts 357°
2026-04-30 09:09 52.31367 4.75477 -1 ft 10 kts 357°
2026-04-30 09:10 52.31428 4.75519 -1 ft 11 kts 74°
2026-04-30 09:10 52.31435 4.75674 -1 ft 15 kts 86°
2026-04-30 09:10 52.31442 4.75854 -1 ft 17 kts 86°
2026-04-30 09:10 52.31448 4.76048 -1 ft 18 kts 86°
2026-04-30 09:11 52.31456 4.76262 -1 ft 20 kts 86°
2026-04-30 09:11 52.31464 4.76493 -1 ft 21 kts 86°
2026-04-30 09:11 52.31473 4.76742 -1 ft 23 kts 87°
2026-04-30 09:11 52.31481 4.77006 -1 ft 23 kts 86°
2026-04-30 09:12 52.31486 4.77135 -1 ft 5 kts 85°
2026-04-30 09:12 52.31509 4.77191 -1 ft 7 kts 31°
2026-04-30 09:12 52.31561 4.77233 -1 ft 10 kts 46°
2026-04-30 09:12 52.31577 4.77345 -1 ft 11 kts 86°
2026-04-30 09:13 52.31582 4.77484 -1 ft 13 kts 87°
2026-04-30 09:13 52.31587 4.77641 -1 ft 14 kts 87°
2026-04-30 09:13 52.31591 4.77774 -1 ft 11 kts 87°
2026-04-30 09:13 52.31595 4.77895 0 ft 11 kts 86°
2026-04-30 09:14 52.31594 4.77962 0 ft 3 kts 122°
2026-04-30 09:14 52.31584 4.77963 0 ft 1 kts 181°
2026-04-30 09:14 52.31538 4.77961 1 ft 28 kts 182°
2026-04-30 09:14 52.31058 4.77917 -4 ft 106 kts 183°
2026-04-30 09:15 52.30109 4.77832 10 ft 163 kts 182°
2026-04-30 09:15 52.28969 4.77718 677 ft 162 kts 177°
2026-04-30 09:15 52.27810 4.77624 1249 ft 177 kts 176°
2026-04-30 09:15 52.26541 4.77907 1669 ft 195 kts 147°
2026-04-30 09:16 52.25708 4.79670 2344 ft 206 kts 104°
2026-04-30 09:16 52.25554 4.81957 3582 ft 201 kts 95°
2026-04-30 09:16 52.25501 4.84230 4573 ft 203 kts 94°
2026-04-30 09:16 52.25462 4.86593 5269 ft 217 kts 94°
2026-04-30 09:17 52.25415 4.89191 5759 ft 239 kts 94°
2026-04-30 09:17 52.25359 4.91957 6560 ft 248 kts 94°
2026-04-30 09:17 52.25293 4.94795 7427 ft 253 kts 94°
2026-04-30 09:17 52.25222 4.97675 8340 ft 255 kts 94°
2026-04-30 09:18 52.25146 5.00581 9274 ft 257 kts 93°
2026-04-30 09:18 52.25065 5.03509 10180 ft 260 kts 93°
2026-04-30 09:18 52.24979 5.06518 10786 ft 274 kts 93°
2026-04-30 09:18 52.24884 5.09741 11147 ft 294 kts 93°
2026-04-30 09:19 52.24785 5.13122 11794 ft 302 kts 93°
2026-04-30 09:19 52.24680 5.16580 12518 ft 308 kts 93°
2026-04-30 09:19 52.24573 5.20093 13281 ft 312 kts 92°
2026-04-30 09:19 52.24352 5.23646 14008 ft 318 kts 101°
2026-04-30 09:20 52.23642 5.27099 14657 ft 325 kts 114°
2026-04-30 09:20 52.22443 5.30262 15322 ft 330 kts 123°
2026-04-30 09:20 52.21101 5.33324 16010 ft 333 kts 123°
2026-04-30 09:20 52.19748 5.36424 16680 ft 337 kts 123°
2026-04-30 09:21 52.18394 5.39537 17340 ft 340 kts 123°
2026-04-30 09:21 52.17017 5.42703 18009 ft 343 kts 123°
2026-04-30 09:21 52.15629 5.45891 18676 ft 347 kts 123°
2026-04-30 09:21 52.14222 5.49117 19238 ft 351 kts 123°
2026-04-30 09:22 52.12804 5.52367 19815 ft 354 kts 123°
2026-04-30 09:22 52.11368 5.55656 20371 ft 358 kts 123°
2026-04-30 09:22 52.09914 5.58974 20918 ft 362 kts 123°
2026-04-30 09:22 52.08442 5.62323 21476 ft 366 kts 123°
2026-04-30 09:23 52.06956 5.65699 22029 ft 369 kts 123°
2026-04-30 09:23 52.05367 5.69015 22567 ft 374 kts 128°
2026-04-30 09:23 52.03652 5.72222 23109 ft 378 kts 128°
2026-04-30 09:23 52.01915 5.75464 23661 ft 382 kts 128°
2026-04-30 09:24 52.00164 5.78723 24163 ft 386 kts 128°
2026-04-30 09:24 51.98395 5.82024 24610 ft 388 kts 128°
2026-04-30 09:24 51.96617 5.85339 25067 ft 391 kts 128°
2026-04-30 09:24 51.94826 5.88684 25525 ft 393 kts 128°
2026-04-30 09:25 51.93049 5.92000 25977 ft 395 kts 128°
2026-04-30 09:25 51.91218 5.95413 26419 ft 398 kts 128°
2026-04-30 09:25 51.89416 5.98765 26842 ft 400 kts 128°
2026-04-30 09:25 51.87582 6.02174 27269 ft 403 kts 128°
2026-04-30 09:26 51.85733 6.05605 27697 ft 405 kts 128°
2026-04-30 09:26 51.83876 6.09040 28112 ft 407 kts 128°
2026-04-30 09:26 51.82002 6.12489 28534 ft 410 kts 128°
2026-04-30 09:26 51.80108 6.15957 28955 ft 412 kts 128°
2026-04-30 09:27 51.78204 6.19435 29364 ft 414 kts 128°
2026-04-30 09:27 51.76286 6.22933 29769 ft 417 kts 128°
2026-04-30 09:27 51.74357 6.26448 30162 ft 419 kts 128°
2026-04-30 09:27 51.72417 6.29981 30547 ft 422 kts 128°
2026-04-30 09:28 51.70470 6.33533 30882 ft 424 kts 128°
2026-04-30 09:28 51.68513 6.37100 31216 ft 426 kts 128°
2026-04-30 09:28 51.66544 6.40678 31533 ft 428 kts 128°
2026-04-30 09:28 51.64566 6.44268 31860 ft 429 kts 128°
2026-04-30 09:29 51.62586 6.47854 32272 ft 428 kts 128°
2026-04-30 09:29 51.60603 6.51430 32737 ft 427 kts 128°
2026-04-30 09:29 51.58634 6.54980 33204 ft 425 kts 128°
2026-04-30 09:29 51.56670 6.58524 33665 ft 424 kts 128°
2026-04-30 09:30 51.54712 6.62056 34119 ft 422 kts 128°
2026-04-30 09:30 51.52765 6.65572 34555 ft 421 kts 128°
2026-04-30 09:30 51.50818 6.69084 34929 ft 420 kts 128°
2026-04-30 09:30 51.48871 6.72582 35278 ft 420 kts 128°
2026-04-30 09:31 51.46926 6.76070 35605 ft 420 kts 128°
2026-04-30 09:31 51.44975 6.79550 35921 ft 419 kts 128°
2026-04-30 09:31 51.43027 6.83031 36235 ft 419 kts 128°
2026-04-30 09:31 51.41027 6.86434 36540 ft 422 kts 133°
2026-04-30 09:32 51.38716 6.89361 36824 ft 426 kts 143°
2026-04-30 09:32 51.36200 6.91890 37106 ft 427 kts 144°
2026-04-30 09:32 51.33677 6.94421 37350 ft 428 kts 144°
2026-04-30 09:32 51.31150 6.96964 37411 ft 430 kts 144°
2026-04-30 09:33 51.26093 7.02049 37417 ft 429 kts 143°
2026-04-30 09:33 51.21034 7.07118 37421 ft 430 kts 144°
2026-04-30 09:34 51.15962 7.12180 37422 ft 430 kts 144°
2026-04-30 09:34 51.10894 7.17229 37421 ft 430 kts 143°
2026-04-30 09:35 51.05821 7.22276 37419 ft 430 kts 144°
2026-04-30 09:35 51.00742 7.27316 37417 ft 430 kts 144°
2026-04-30 09:36 50.95657 7.32355 37415 ft 431 kts 144°
2026-04-30 09:36 50.90569 7.37382 37416 ft 431 kts 144°
2026-04-30 09:37 50.85471 7.42391 37419 ft 431 kts 144°
2026-04-30 09:37 50.80368 7.47390 37420 ft 431 kts 144°
2026-04-30 09:38 50.75263 7.52375 37426 ft 432 kts 144°
2026-04-30 09:38 50.70161 7.57397 37431 ft 431 kts 143°
2026-04-30 09:39 50.65155 7.62588 37429 ft 431 kts 142°
2026-04-30 09:39 50.60169 7.67840 37429 ft 431 kts 142°
2026-04-30 09:40 50.55161 7.73040 37430 ft 432 kts 142°
2026-04-30 09:40 50.50129 7.78198 37430 ft 432 kts 142°
2026-04-30 09:41 50.45094 7.83342 37428 ft 432 kts 142°
2026-04-30 09:41 50.40086 7.88472 37432 ft 432 kts 142°
2026-04-30 09:42 50.35017 7.93659 37436 ft 432 kts 142°
2026-04-30 09:42 50.30005 7.98761 37432 ft 433 kts 142°
2026-04-30 09:43 50.24952 8.03893 37424 ft 433 kts 142°
2026-04-30 09:43 50.20714 8.08190 37425 ft 433 kts 142°
2026-04-30 09:44 50.15649 8.13303 37420 ft 433 kts 143°
2026-04-30 09:44 50.10310 8.17761 37421 ft 438 kts 151°
2026-04-30 09:45 50.04776 8.21750 37415 ft 438 kts 150°
2026-04-30 09:45 49.99251 8.25749 37417 ft 438 kts 150°
2026-04-30 09:46 49.93713 8.29732 37419 ft 438 kts 151°
2026-04-30 09:46 49.88173 8.33706 37421 ft 439 kts 151°
2026-04-30 09:47 49.82669 8.37656 37418 ft 438 kts 150°
2026-04-30 09:47 49.77131 8.41620 37421 ft 439 kts 151°
2026-04-30 09:48 49.71553 8.45592 37414 ft 439 kts 151°
2026-04-30 09:48 49.66004 8.49527 37414 ft 439 kts 151°
2026-04-30 09:49 49.60457 8.53448 37417 ft 439 kts 151°
2026-04-30 09:49 49.54942 8.57343 37414 ft 439 kts 151°
2026-04-30 09:50 49.49389 8.61265 37415 ft 439 kts 151°
2026-04-30 09:50 49.43829 8.65182 37415 ft 439 kts 151°
2026-04-30 09:51 49.38267 8.69083 37408 ft 440 kts 151°
2026-04-30 09:51 49.32701 8.72979 37399 ft 440 kts 151°
2026-04-30 09:52 49.27129 8.76873 37391 ft 440 kts 151°
2026-04-30 09:52 49.21554 8.80757 37377 ft 440 kts 151°
2026-04-30 09:53 49.15965 8.84629 37363 ft 441 kts 151°
2026-04-30 09:53 49.10370 8.88503 37359 ft 441 kts 151°
2026-04-30 09:54 49.04767 8.92373 37355 ft 442 kts 151°
2026-04-30 09:54 48.99172 8.96230 37353 ft 442 kts 151°
2026-04-30 09:55 48.93568 9.00099 37347 ft 442 kts 151°
2026-04-30 09:55 48.87956 9.03946 37337 ft 442 kts 152°
2026-04-30 09:56 48.82342 9.07790 37335 ft 443 kts 152°
2026-04-30 09:56 48.76724 9.11632 37335 ft 443 kts 152°
2026-04-30 09:57 48.71095 9.15460 37329 ft 443 kts 152°
2026-04-30 09:57 48.65466 9.19279 37330 ft 444 kts 152°
2026-04-30 09:58 48.59832 9.23097 37335 ft 444 kts 152°
2026-04-30 09:58 48.54186 9.26917 37336 ft 444 kts 152°
2026-04-30 09:59 48.42891 9.34532 37320 ft 445 kts 152°
2026-04-30 10:00 48.34403 9.40217 37316 ft 445 kts 152°
2026-04-30 10:01 48.25967 9.46055 37314 ft 442 kts 145°
2026-04-30 10:02 48.18748 9.54505 37316 ft 439 kts 136°
2026-04-30 10:02 48.14017 9.60317 37323 ft 440 kts 136°
2026-04-30 10:03 48.09277 9.66117 37316 ft 440 kts 137°
2026-04-30 10:03 48.06441 9.69586 37325 ft 440 kts 136°
2026-04-30 10:04 48.01710 9.75379 37306 ft 440 kts 137°
2026-04-30 10:04 47.96955 9.81164 37296 ft 441 kts 137°
2026-04-30 10:05 47.92199 9.86936 37289 ft 442 kts 137°
2026-04-30 10:05 47.87415 9.92728 37295 ft 443 kts 137°
2026-04-30 10:06 47.82631 9.98527 37294 ft 444 kts 137°
2026-04-30 10:06 47.77827 10.04321 37287 ft 445 kts 137°
2026-04-30 10:07 47.73013 10.10109 37278 ft 446 kts 138°
2026-04-30 10:07 47.68183 10.15907 37264 ft 446 kts 138°
2026-04-30 10:08 47.63344 10.21708 37248 ft 447 kts 138°
2026-04-30 10:08 47.58496 10.27506 37240 ft 448 kts 138°
2026-04-30 10:09 47.53464 10.32977 37238 ft 451 kts 144°
2026-04-30 10:09 47.48218 10.38066 37232 ft 451 kts 144°
2026-04-30 10:10 47.42959 10.43163 37231 ft 452 kts 144°
2026-04-30 10:10 47.37694 10.48263 37237 ft 453 kts 144°
2026-04-30 10:11 47.32411 10.53358 37235 ft 454 kts 144°
2026-04-30 10:11 47.27137 10.58459 37234 ft 453 kts 144°
2026-04-30 10:12 47.21982 10.63805 37240 ft 453 kts 142°
2026-04-30 10:12 47.16890 10.69289 37247 ft 454 kts 142°
2026-04-30 10:13 47.11767 10.74726 37259 ft 455 kts 143°
2026-04-30 10:13 47.06606 10.80101 37273 ft 455 kts 143°
2026-04-30 10:14 47.01424 10.85465 37274 ft 456 kts 143°
2026-04-30 10:14 46.93669 10.93517 37278 ft 456 kts 143°
2026-04-30 10:15 46.88480 10.98887 37281 ft 457 kts 144°
2026-04-30 10:15 46.83285 11.04246 37271 ft 457 kts 144°
2026-04-30 10:16 46.78624 11.10512 37270 ft 455 kts 131°
2026-04-30 10:17 46.72123 11.20652 37249 ft 456 kts 132°
2026-04-30 10:17 46.65588 11.30773 37239 ft 458 kts 132°
2026-04-30 10:18 46.61218 11.37537 37237 ft 459 kts 132°
2026-04-30 10:19 46.54644 11.47679 37239 ft 460 kts 133°
2026-04-30 10:19 46.50250 11.54437 37241 ft 460 kts 133°
2026-04-30 10:20 46.45839 11.61187 37243 ft 461 kts 133°
2026-04-30 10:20 46.39954 11.70163 37250 ft 462 kts 133°
2026-04-30 10:21 46.35491 11.76860 37260 ft 462 kts 134°
2026-04-30 10:21 46.30942 11.83444 37269 ft 463 kts 135°
2026-04-30 10:22 46.26372 11.90017 37273 ft 464 kts 135°
2026-04-30 10:22 46.21803 11.96619 37279 ft 464 kts 135°
2026-04-30 10:23 46.17240 12.03225 37293 ft 465 kts 135°
2026-04-30 10:23 46.12660 12.09836 37293 ft 466 kts 135°
2026-04-30 10:24 46.08073 12.16444 37307 ft 467 kts 135°
2026-04-30 10:24 46.03473 12.23049 37313 ft 467 kts 135°
2026-04-30 10:25 45.98864 12.29654 37317 ft 468 kts 135°
2026-04-30 10:25 45.94235 12.36251 37320 ft 468 kts 135°
2026-04-30 10:26 45.89605 12.42830 37320 ft 469 kts 135°
2026-04-30 10:26 45.84972 12.49431 37317 ft 469 kts 135°
2026-04-30 10:27 45.80331 12.56030 37317 ft 470 kts 135°
2026-04-30 10:27 45.75672 12.62613 37313 ft 470 kts 136°
2026-04-30 10:28 45.70997 12.69184 37313 ft 471 kts 136°
2026-04-30 10:28 45.66322 12.75753 37312 ft 471 kts 136°
2026-04-30 10:29 45.61674 12.82287 37314 ft 472 kts 136°
2026-04-30 10:29 45.56962 12.88894 37312 ft 472 kts 136°
2026-04-30 10:30 45.52264 12.95448 37316 ft 472 kts 136°
2026-04-30 10:30 45.47598 13.01944 37318 ft 472 kts 136°
2026-04-30 10:31 45.42866 13.08520 37323 ft 472 kts 136°
2026-04-30 10:31 45.38191 13.15001 37323 ft 472 kts 136°
2026-04-30 10:32 45.33479 13.21522 37323 ft 472 kts 137°
2026-04-30 10:32 45.28844 13.28123 37319 ft 473 kts 134°
2026-04-30 10:33 45.24500 13.35146 37317 ft 473 kts 131°
2026-04-30 10:33 45.20262 13.42281 37312 ft 473 kts 131°
2026-04-30 10:34 45.15955 13.49322 37306 ft 473 kts 132°
2026-04-30 10:34 45.11588 13.56275 37304 ft 473 kts 133°
2026-04-30 10:35 45.07209 13.63232 37294 ft 473 kts 133°
2026-04-30 10:35 45.02848 13.70189 37286 ft 473 kts 133°
2026-04-30 10:36 44.98481 13.77144 37287 ft 473 kts 133°
2026-04-30 10:36 44.94113 13.84083 37282 ft 473 kts 133°
2026-04-30 10:37 44.89739 13.91012 37275 ft 472 kts 133°
2026-04-30 10:37 44.85332 13.97881 37280 ft 472 kts 134°
2026-04-30 10:38 44.80862 14.04667 37271 ft 472 kts 135°
2026-04-30 10:38 44.76382 14.11443 37072 ft 473 kts 135°
2026-04-30 10:39 44.74145 14.14837 36808 ft 473 kts 135°
2026-04-30 10:39 44.71910 14.18234 36541 ft 473 kts 135°
2026-04-30 10:39 44.69686 14.21623 36302 ft 473 kts 135°
2026-04-30 10:39 44.67460 14.25010 35831 ft 470 kts 135°
2026-04-30 10:40 44.65240 14.28374 35279 ft 468 kts 135°
2026-04-30 10:40 44.63029 14.31716 34714 ft 467 kts 135°
2026-04-30 10:40 44.60814 14.35058 34145 ft 466 kts 135°
2026-04-30 10:40 44.58614 14.38376 33574 ft 463 kts 135°
2026-04-30 10:41 44.56429 14.41671 33034 ft 460 kts 135°
2026-04-30 10:41 44.54254 14.44946 32475 ft 458 kts 135°
2026-04-30 10:41 44.52019 14.48096 31955 ft 453 kts 142°
2026-04-30 10:41 44.49633 14.50938 31498 ft 448 kts 142°
2026-04-30 10:42 44.47264 14.53759 31031 ft 445 kts 142°
2026-04-30 10:42 44.44918 14.56560 30581 ft 441 kts 142°
2026-04-30 10:42 44.42597 14.59333 30085 ft 438 kts 142°
2026-04-30 10:42 44.40291 14.62085 29648 ft 432 kts 142°
2026-04-30 10:43 44.38016 14.64792 29208 ft 427 kts 142°
2026-04-30 10:43 44.35760 14.67471 28796 ft 423 kts 142°
2026-04-30 10:43 44.33530 14.70117 28384 ft 418 kts 142°
2026-04-30 10:43 44.31322 14.72732 27972 ft 415 kts 142°
2026-04-30 10:44 44.29128 14.75329 27567 ft 412 kts 142°
2026-04-30 10:44 44.26949 14.77904 27161 ft 409 kts 142°
2026-04-30 10:44 44.24788 14.80456 26748 ft 407 kts 142°
2026-04-30 10:44 44.22631 14.82998 26342 ft 404 kts 142°
2026-04-30 10:45 44.20496 14.85518 25912 ft 401 kts 142°
2026-04-30 10:45 44.18368 14.88031 25490 ft 399 kts 142°
2026-04-30 10:45 44.16285 14.90484 25077 ft 397 kts 142°
2026-04-30 10:45 44.14180 14.92960 24626 ft 395 kts 142°
2026-04-30 10:46 44.12083 14.95420 24187 ft 393 kts 142°
2026-04-30 10:46 44.09997 14.97865 23729 ft 391 kts 142°
2026-04-30 10:46 44.07921 15.00294 23239 ft 389 kts 142°
2026-04-30 10:46 44.05856 15.02708 22807 ft 385 kts 142°
2026-04-30 10:47 44.03818 15.05090 22377 ft 382 kts 142°
2026-04-30 10:47 44.01794 15.07455 21949 ft 379 kts 142°
2026-04-30 10:47 43.99782 15.09808 21531 ft 376 kts 142°
2026-04-30 10:47 43.97785 15.12142 21116 ft 373 kts 142°
2026-04-30 10:48 43.95807 15.14452 20704 ft 371 kts 142°
2026-04-30 10:48 43.93833 15.16751 20290 ft 369 kts 142°
2026-04-30 10:48 43.91885 15.19040 19880 ft 367 kts 142°
2026-04-30 10:48 43.89954 15.21346 19475 ft 365 kts 141°
2026-04-30 10:49 43.88038 15.23655 19071 ft 364 kts 141°
2026-04-30 10:49 43.86133 15.25956 18668 ft 363 kts 141°
2026-04-30 10:49 43.84234 15.28247 18227 ft 361 kts 141°
2026-04-30 10:49 43.82343 15.30522 17827 ft 359 kts 141°
2026-04-30 10:50 43.80457 15.32782 17478 ft 356 kts 141°
2026-04-30 10:50 43.78602 15.35001 17296 ft 348 kts 141°
2026-04-30 10:50 43.76778 15.37181 16979 ft 344 kts 141°
2026-04-30 10:50 43.74972 15.39332 16620 ft 342 kts 141°
2026-04-30 10:51 43.73180 15.41466 16273 ft 339 kts 141°
2026-04-30 10:51 43.71398 15.43585 15918 ft 336 kts 141°
2026-04-30 10:51 43.69628 15.45686 15466 ft 334 kts 142°
2026-04-30 10:51 43.67873 15.47764 15030 ft 331 kts 141°
2026-04-30 10:52 43.66132 15.49827 14601 ft 328 kts 141°
2026-04-30 10:52 43.64406 15.51875 14178 ft 326 kts 141°
2026-04-30 10:52 43.62692 15.53905 13723 ft 323 kts 141°
2026-04-30 10:52 43.60992 15.55916 13260 ft 320 kts 141°
2026-04-30 10:53 43.59312 15.57908 12811 ft 317 kts 141°
2026-04-30 10:53 43.57644 15.59884 12370 ft 314 kts 141°
2026-04-30 10:53 43.55995 15.61834 11932 ft 310 kts 141°
2026-04-30 10:53 43.54362 15.63759 11497 ft 307 kts 141°
2026-04-30 10:54 43.52746 15.65661 11052 ft 304 kts 141°
2026-04-30 10:54 43.51150 15.67543 10617 ft 300 kts 141°
2026-04-30 10:54 43.49575 15.69396 10148 ft 295 kts 141°
2026-04-30 10:54 43.48031 15.71211 9610 ft 289 kts 141°
2026-04-30 10:55 43.46513 15.73011 9022 ft 286 kts 141°
2026-04-30 10:55 43.45014 15.74786 8430 ft 283 kts 141°
2026-04-30 10:55 43.43533 15.76541 7959 ft 275 kts 141°
2026-04-30 10:55 43.42148 15.78186 7708 ft 261 kts 141°
2026-04-30 10:56 43.40791 15.79803 7243 ft 256 kts 141°
2026-04-30 10:56 43.39451 15.81394 6750 ft 253 kts 141°
2026-04-30 10:56 43.38110 15.82931 6205 ft 249 kts 147°
2026-04-30 10:56 43.36557 15.83863 5786 ft 239 kts 163°
2026-04-30 10:57 43.34987 15.84518 5413 ft 234 kts 165°
2026-04-30 10:57 43.33436 15.85145 5036 ft 231 kts 160°
2026-04-30 10:57 43.32143 15.86391 4620 ft 230 kts 127°
2026-04-30 10:57 43.31578 15.88417 4284 ft 230 kts 94°
2026-04-30 10:58 43.31925 15.90538 4021 ft 233 kts 61°
2026-04-30 10:58 43.32880 15.92342 3769 ft 234 kts 53°
2026-04-30 10:58 43.33888 15.94096 3527 ft 233 kts 53°
2026-04-30 10:58 43.34877 15.95839 3305 ft 230 kts 54°
2026-04-30 10:59 43.35859 15.97582 3176 ft 231 kts 54°
2026-04-30 10:59 43.36837 15.99322 3061 ft 227 kts 54°
2026-04-30 10:59 43.37779 16.00995 3010 ft 215 kts 54°
2026-04-30 10:59 43.38689 16.02615 3015 ft 214 kts 55°
2026-04-30 11:00 43.39599 16.04234 3016 ft 214 kts 54°
2026-04-30 11:00 43.40508 16.05854 3014 ft 214 kts 55°
2026-04-30 11:00 43.41417 16.07474 3011 ft 214 kts 55°
2026-04-30 11:00 43.42324 16.09090 3012 ft 212 kts 55°
2026-04-30 11:01 43.43196 16.10642 3009 ft 200 kts 55°
2026-04-30 11:01 43.43750 16.11632 3025 ft 196 kts 56°
2026-04-30 11:01 43.44593 16.13138 2917 ft 201 kts 55°
2026-04-30 11:01 43.45465 16.14700 2679 ft 210 kts 56°
2026-04-30 11:02 43.46353 16.16284 2363 ft 205 kts 55°
2026-04-30 11:02 43.47205 16.17804 2098 ft 196 kts 56°
2026-04-30 11:02 43.48019 16.19259 1890 ft 186 kts 56°
2026-04-30 11:02 43.48792 16.20642 1611 ft 178 kts 56°
2026-04-30 11:03 43.49526 16.21957 1358 ft 169 kts 55°
2026-04-30 11:03 43.50233 16.23226 1093 ft 163 kts 55°
2026-04-30 11:03 43.50898 16.24416 850 ft 150 kts 53°
2026-04-30 11:04 43.52120 16.26609 466 ft 138 kts 53°
2026-04-30 11:04 43.52690 16.27628 295 ft 131 kts 52°
2026-04-30 11:04 43.53235 16.28606 112 ft 127 kts 52°
2026-04-30 11:04 43.53715 16.29471 80 ft 82 kts 53°
2026-04-30 11:05 43.53940 16.29881 69 ft 41 kts 53°
2026-04-30 11:05 43.54041 16.30062 65 ft 10 kts 53°
2026-04-30 11:05 43.54013 16.30101 62 ft 7 kts 190°
2026-04-30 11:05 43.53976 16.30088 63 ft 4 kts 195°
2026-04-30 11:06 43.53951 16.30078 64 ft 4 kts 196°
2026-04-30 11:06 43.53925 16.30067 68 ft 5 kts 198°
2026-04-30 11:06 43.53894 16.30037 63 ft 6 kts 226°
2026-04-30 11:06 43.53875 16.30004 68 ft 0 kts 232°
2026-04-30 11:07 43.53865 16.29987 68 ft 4 kts 233°
2026-04-30 11:07 43.53843 16.29945 68 ft 6 kts 233°
2026-04-30 11:07 43.53817 16.29931 68 ft 4 kts 150°
2026-04-30 11:07 43.53807 16.29972 68 ft 3 kts 114°
2026-04-30 11:08 43.53796 16.30003 65 ft 2 kts 115°
2026-04-30 11:08 43.53796 16.30004 68 ft 0 kts 115°